Showing default

HRC MONOBLOCK CAMERA, 66052

Orbit data source: Space-Track

HRC MONOBLOCK CAMERA, 66052 is a payload satellite owned by UrtheCast (CIS) in LEO that was delivered to the ISS. Payload-class satellites include a variety of spacecraft equipped with specific instruments for various scientific and technological missions. These include communications satellites like Starlink; space stations such as the ISS; scientific satellites like the Hubble; Earth observation satellites from companies like Planet Labs, Umbra, and HawkEye 360; GPS; miniature CubeSats for education and research; and military/defense satellites.

Loading next visibility...
Identifier
66052, 1998-067XR
Orbit
LEO
Country
Flag of CISCIS
Related business
Manufacturer
Unknown
Mission
Spacecraft
Bus & Motor
Unknown
Mass
Wet unknown, 82 kg dry
Launch date (UTC)
1998-11-20 (27 years ago)
Launch vehicle
Unknown
Launch site
Tyuratam Missile And Space Complex (TTMTR)
Object type
Payload
Rocket body
Debris
Shape & HBR
Unknown shape, 0.6 m
Radar Cross Section
RCS unknown

Expand to show TLE details & history
Last TLE update: 5 hours ago

TLE from 5 hours ago
0 HRC MONOBLOCK CAMERA
1 66052U 98067XR  26130.23238757  .00042277  00000-0  36157-3 0  9995
2 66052  51.6250 113.3409 0004749  35.0678 325.0631 15.69011879 32039
Epoch: 2026-05-10T05:34Z
TLE epoch observation values (Epoch: 2026-05-10T05:34:38.286Z)
Latitude
0.00002°
Longitude
161.64297°
Altitude
359.848 km
Speed
7.696 km/s
True Right ascension
07h 33m 21s
True Declination
0° 00' 00"
Sunlit
Object was in daylight at epoch
Visualization orbit readout
Latitude
Unknown
Longitude
Unknown
Altitude
Unknown
Speed
Unknown
Apparent Right ascension
Unknown
Apparent Declination
Unknown
Sunlit
N/A
Visualization observer readout
Local Sidereal Time
19:07:52
Azimuth
Unknown
Elevation
Unknown
Doppler factor
Unknown
Orbital elements
Apogee altitude
365.441 km
Perigee altitude
359.039 km
Semi-major axis
6,740.377 km
Eccentricity
0.00047
Inclination
51.625°
RAAN
113.3409°
Arg. of periapsis
35.0678°
True anomaly
325.03192°
Mean anomaly
325.0631°
Eccentric anomaly
325.04751°
Mean motion
3.92208 °/min
Orbital period
91.79 mins
BSTAR
0.00036157
Loading maneuver chart data...
Computing Atmospheric mass density...

Documentation

Showing up to 5 results
|